OPS 4682 DEB, 20048

Orbit data source: Space-Track

OPS 4682 DEB, 20048 is space debris in LEO originally from a launch on Sat, 03 Apr 1965 UTC launched from the Air Force Western Test Range (AFWTR). Debris objects in space refer to the collection of defunct objects orbiting the Earth. Examples of debris include non-operational satellites, rocket bodies, and fragments generated from explosions, collisions, or faulty payload assembly.

Loading next visibility...
Identifier
20048, 1965-027BC
Orbit
LEO
Country
Flag of USUS
Related business
Manufacturer
Unknown
Mission
Spacecraft
Bus & Motor
Unknown
Mass
Unknown
Launch date (UTC)
1965-04-03 (61 years ago)
Launch vehicle
Unknown
Launch site
Air Force Western Test Range (AFWTR)
Object type
Payload
Rocket body
Debris
Shape & HBR
Unknown shape, 0.1 m
Radar Cross Section
Small (<0.1 m²)

Expand to show TLE details & history
Last TLE update: 2 days ago

TLE from 2 days ago
0 OPS 4682 DEB
1 20048U 65027BC  26034.81900152  .00000048  00000-0  13197-3 0  9991
2 20048  90.2526 351.2793 0027006 227.8384 160.5415 13.01544311599018
Epoch: 2026-02-03T19:39Z
TLE epoch observation values (Epoch: 2026-02-03T19:39:21.731Z)
Latitude
28.52247°
Longitude
-77.69231°
Altitude
1,279.018 km
Speed
7.21 km/s
True Right ascension
23h 24m 34s
True Declination
28° 23' 18"
Sunlit
Object was in daylight at epoch
Visualization orbit readout
Latitude
Unknown
Longitude
Unknown
Altitude
Unknown
Speed
Unknown
Apparent Right ascension
Unknown
Apparent Declination
Unknown
Sunlit
N/A
Visualization observer readout
Local Sidereal Time
10:10:01
Azimuth
Unknown
Elevation
Unknown
Doppler factor
Unknown
Orbital elements
Apogee altitude
1,273.776 km
Perigee altitude
1,232.558 km
Semi-major axis
7,631.304 km
Eccentricity
0.0027
Inclination
90.2526°
RAAN
351.2793°
Arg. of periapsis
227.8384°
True anomaly
160.64426°
Mean anomaly
160.5415°
Eccentric anomaly
160.59291°
Mean motion
3.25571 °/min
Orbital period
110.58 mins
BSTAR
0.00013197
Loading maneuver chart data...
Computing Atmospheric mass density...
Loading historical data...
Loading historical data...
Loading historical data...
Loading historical data...
Loading historical data...
Loading historical data...
Loading historical data...

Documentation

Showing up to 5 results
|